Terug naar catalogus

CZ-6A DEB

ActiefPO
NORAD 64656·DEBRIS·🇨🇳 China

Gelanceerd Aug 6, 2024 vanaf Taiyuan Satellite Launch Center

Loading…

Volgende Passages (komende 24 uur)

TLE

VersSource: Space-Track

Epoch: Sep 13, 2026, 11:27 UTC

1 64656U 24140AEW 26256.47726120  .00002986  00000-0  10272-2 0  9997
2 64656  89.0203 265.1307 0016250 180.6079 179.5103 14.35731821 98615

Volg CZ-6A DEB in realtime met AllMySat

Download on the App Store